Location: Chena
(64.8152°N, 147.9227°W)
Time: 14:00:10
(UTC+00:00)

N. Korean satellite - Pass Details

Date: 22 January 2021
Orbit: 451 x 503 km, 97.2° (Epoch: 28 February)

Event Time Altitude Azimuth Distance (km) Brightness Sun altitude
Rises 15:24:34 0° 18° (NNE) 2,555 10.5 -21.7°
Reaches altitude 10° 15:26:42 10° 24° (NNE) 1,662 9.5 -21.5°
Maximum altitude 15:30:11 50° 101° (E) 612 7.4 -21.1°
Drops below altitude 10° 15:33:35 10° 178° (S) 1,621 9.2 -20.8°
Sets 15:35:38 0° 184° (S) 2,485 10.2 -20.5°
